FW7665 Weather Reports


Display with metric or nautical units.
time (UTC)temp
F
wind
direction
speed
MPH
gust
MPH
rain 1hr
in
rain 24hr
in
rain mn
in
humidity
%
barometer
mb
20260507195412 45 43 2.0 6.0 0.00 0.00 0.00 61 1018.0
20260507194512 43 26 1.0 3.0 0.00 0.00 0.00 68 1018.0
20260507193632 44 31 1.0 5.0 0.00 0.00 0.00 65 1018.0
20260507192712 41 38 0.0 2.0 0.00 0.00 0.00 74 1018.0
20260507191811 42 0 0.0 0.0 0.00 0.00 0.00 72 1018.0
20260507190911 43 59 1.0 7.0 0.00 0.00 0.00 67 1018.0
20260507190032 42 67 2.0 8.0 0.00 0.00 0.00 67 1018.0
20260507185411 42 84 1.0 6.0 0.00 0.00 0.00 73 1018.0
20260507184511 42 72 1.0 3.0 0.00 0.00 0.00 72 1018.0
20260507183611 41 71 1.0 3.0 0.00 0.00 0.00 74 1018.0
20260507182711 42 165 2.0 4.0 0.00 0.00 0.00 74 1019.7
20260507181812 41 226 1.0 4.0 0.00 0.00 0.00 77 1019.7
20260507180911 40 235 1.0 3.0 0.00 0.00 0.00 77 1019.7
20260507180012 41 0 0.0 0.0 0.00 0.00 0.00 76 1019.7
20260507175411 41 0 0.0 0.0 0.00 0.00 0.00 74 1019.7
20260507174532 43 248 0.0 2.0 0.00 0.00 0.00 70 1019.7
20260507173611 46 137 2.0 7.0 0.00 0.00 0.00 64 1019.7
20260507172711 48 48 1.0 6.0 0.00 0.00 0.00 56 1019.7
20260507171811 45 231 1.0 4.0 0.00 0.00 0.00 72 1019.7
20260507170913 40 221 1.0 2.0 0.00 0.00 0.00 79 1019.7
20260507170011 40 219 0.0 3.0 0.00 0.00 0.00 81 1019.7
20260507165411 39 0 0.0 0.0 0.00 0.00 0.00 82 1019.7
20260507164510 40 0 0.0 0.0 0.00 0.00 0.00 81 1019.7
20260507163611 40 0 0.0 0.0 0.00 0.00 0.00 79 1019.7
20260507162711 40 0 0.0 0.0 0.00 0.00 0.00 80 1019.7
20260507161811 38 0 0.0 0.0 0.00 0.00 0.00 81 1019.7
20260507160910 38 137 0.0 2.0 0.00 0.00 0.00 82 1019.7
20260507160011 37 137 1.0 2.0 0.00 0.00 0.00 81 1019.7
20260507155410 37 137 1.0 2.0 0.00 0.00 0.00 80 1019.7
20260507154510 37 137 1.0 2.0 0.00 0.00 0.00 79 1019.7
20260507153610 38 137 0.0 2.0 0.00 0.00 0.00 77 1019.7
20260507152712 39 209 1.0 5.0 0.00 0.00 0.00 72 1019.7
20260507151810 38 275 0.0 2.0 0.00 0.00 0.00 73 1019.7
20260507150911 39 274 2.0 6.0 0.00 0.00 0.00 69 1019.6
20260507150011 40 260 3.0 6.0 0.00 0.00 0.00 61 1019.6
20260507145410 40 256 3.0 7.0 0.00 0.00 0.00 63 1019.6
20260507144510 40 255 3.0 9.0 0.00 0.00 0.00 59 1019.6
20260507143631 40 256 3.0 11.0 0.00 0.00 0.00 59 1019.6
20260507142710 40 248 4.0 9.0 0.00 0.00 0.00 60 1019.6
20260507141831 40 255 3.0 9.0 0.00 0.00 0.00 59 1019.6
20260507140910 40 213 4.0 14.0 0.00 0.00 0.00 58 1019.2
20260507140012 40 255 2.0 8.0 0.00 0.00 0.00 61 1019.2
20260507135431 39 3 1.0 4.0 0.00 0.00 0.00 65 1019.2
20260507134510 39 67 1.0 4.0 0.00 0.00 0.00 64 1019.2
20260507133631 40 88 2.0 5.0 0.00 0.00 0.00 65 1019.2
20260507132716 40 264 2.0 10.0 0.00 0.00 0.00 62 1019.2
20260507131810 38 52 2.0 9.0 0.00 0.00 0.00 70 1019.2
20260507130910 38 55 2.0 7.0 0.00 0.00 0.00 65 1018.9
20260507130010 37 92 3.0 7.0 0.00 0.00 0.00 67 1018.9
20260507125431 36 92 3.0 9.0 0.00 0.00 0.00 66 1018.9
20260507124510 36 112 4.0 11.0 0.00 0.00 0.00 70 1018.9
20260507123610 35 105 3.0 11.0 0.00 0.00 0.00 74 1018.9
20260507122731 35 102 3.0 7.0 0.00 0.00 0.00 76 1018.9
20260507121831 35 84 3.0 8.0 0.00 0.00 0.00 75 1018.9
20260507120910 35 98 3.0 10.0 0.00 0.00 0.00 74 1018.2
20260507120010 35 93 2.0 8.0 0.00 0.00 0.00 73 1018.2
20260507115410 36 172 2.0 7.0 0.00 0.00 0.00 72 1018.2
20260507114531 36 247 2.0 4.0 0.00 0.00 0.00 71 1018.2
20260507113609 36 257 3.0 11.0 0.00 0.00 0.00 67 1018.2
20260507112709 35 270 3.0 8.0 0.00 0.00 0.00 70 1018.2
20260507111809 35 300 2.0 7.0 0.00 0.00 0.00 71 1018.2
20260507110910 34 303 2.0 4.0 0.00 0.00 0.00 73 1017.8
20260507110010 34 262 2.0 4.0 0.00 0.00 0.00 72 1017.8
20260507105409 34 259 2.0 9.0 0.00 0.00 0.00 73 1017.8
20260507104509 34 299 3.0 9.0 0.00 0.00 0.00 75 1017.8
20260507103609 34 303 3.0 13.0 0.00 0.00 0.00 76 1017.8
20260507102709 32 271 3.0 13.0 0.00 0.00 0.00 76 1017.8
20260507101809 32 235 2.0 5.0 0.00 0.00 0.00 80 1017.8
20260507100930 32 134 2.0 8.0 0.00 0.00 0.00 81 1017.8
20260507095430 32 115 2.0 7.0 0.00 0.00 0.00 80 1017.9
20260507094509 32 80 1.0 3.0 0.00 0.00 0.00 78 1017.9
20260507093609 32 93 2.0 4.0 0.00 0.00 0.00 78 1017.9
20260507092709 33 141 1.0 4.0 0.00 0.00 0.00 77 1017.9
20260507091830 33 30 3.0 12.0 0.00 0.00 0.00 74 1017.9
20260507090909 32 290 3.0 12.0 0.00 0.00 0.00 77 1018.0
20260507090010 32 122 2.0 5.0 0.00 0.00 0.00 77 1018.0
20260507085409 32 46 2.0 7.0 0.00 0.00 0.00 75 1018.0
20260507084509 32 117 2.0 7.0 0.00 0.00 0.00 74 1018.0
20260507083609 32 106 3.0 6.0 0.00 0.00 0.00 73 1018.0
20260507082709 32 146 3.0 11.0 0.00 0.00 0.00 75 1018.0
20260507081809 31 217 3.0 9.0 0.00 0.00 0.00 77 1018.0
20260507080909 28 225 2.0 7.0 0.00 0.00 0.00 82 1018.9
20260507080010 28 283 2.0 8.0 0.00 0.00 0.00 84 1018.9
20260507075409 28 159 2.0 8.0 0.00 0.00 0.00 83 1018.9
20260507074509 28 154 2.0 9.0 0.00 0.00 0.00 82 1018.9
20260507073608 28 150 2.0 9.0 0.00 0.00 0.00 82 1018.9
20260507072709 28 206 2.0 6.0 0.00 0.00 0.00 81 1018.9
20260507071809 28 132 2.0 5.0 0.00 0.00 0.00 81 1018.9
20260507070908 28 78 2.0 4.0 0.00 0.00 0.00 80 1018.9
20260507070018 28 55 2.0 6.0 0.00 0.00 0.00 80 1018.9
20260507065430 28 86 3.0 18.0 0.00 0.00 0.00 80 1018.9
20260507064509 28 120 2.0 18.0 0.00 0.00 0.00 81 1018.9
20260507063608 28 142 2.0 5.0 0.00 0.00 0.00 81 1018.9
20260507062709 29 187 2.0 6.0 0.00 0.00 0.00 80 1018.9
20260507061810 30 334 2.0 11.0 0.00 0.00 0.00 78 1018.9
20260507060908 30 135 3.0 11.0 0.00 0.00 0.00 76 1018.9
20260507060034 31 120 3.0 10.0 0.00 0.00 0.00 77 1018.9
20260507055409 31 75 4.0 11.0 0.00 0.00 0.00 73 1018.9
20260507054510 31 16 5.0 15.0 0.00 0.01 0.00 75 1018.9
20260507053608 30 11 4.0 20.0 0.00 0.02 0.00 77 1018.9
20260507052708 30 13 4.0 21.0 0.00 0.03 0.00 77 1018.9
20260507051808 30 118 3.0 10.0 0.00 0.03 0.00 78 1018.9
20260507050929 30 107 3.0 10.0 0.00 0.04 0.00 76 1018.8
20260507050009 30 123 4.0 14.0 0.00 0.04 0.00 76 1018.8
20260507045408 30 120 3.0 10.0 0.00 0.05 0.00 76 1018.8
20260507044508 31 103 5.0 10.0 0.00 0.05 0.00 72 1018.8
20260507043629 30 70 4.0 16.0 0.00 0.06 0.00 74 1018.8
20260507042708 31 88 3.0 12.0 0.00 0.06 0.00 71 1018.8
20260507041810 31 88 4.0 9.0 0.00 0.06 0.00 70 1018.8
20260507040929 31 95 4.0 12.0 0.00 0.06 0.00 69 1018.5
20260507040008 31 86 3.0 9.0 0.00 0.06 0.00 74 1018.5
20260507035408 31 68 3.0 9.0 0.00 0.06 0.00 72 1018.5
20260507034508 31 80 5.0 17.0 0.00 0.06 0.00 75 1018.5
20260507033608 29 132 2.0 8.0 0.00 0.06 0.00 79 1018.5
20260507032708 29 76 2.0 4.0 0.00 0.07 0.00 79 1018.5
20260507031808 29 147 2.0 6.0 0.00 0.07 0.00 80 1018.5
20260507030908 30 60 2.0 8.0 0.00 0.08 0.00 78 1017.0
20260507030029 30 93 2.0 10.0 0.00 0.08 0.00 76 1017.0
20260507025429 30 100 2.0 6.0 0.00 0.09 0.00 80 1017.0
20260507024507 31 104 3.0 10.0 0.00 0.10 0.00 76 1017.0
20260507023608 30 132 2.0 8.0 0.00 0.11 0.00 81 1017.0
20260507022729 29 175 2.0 5.0 0.00 0.12 0.00 83 1017.0
20260507021807 29 113 2.0 4.0 0.00 0.12 0.00 83 1017.0
20260507020907 29 50 1.0 4.0 0.00 0.12 0.00 83 1016.6
20260507020029 30 79 1.0 4.0 0.00 0.13 0.00 81 1016.6
20260507015428 30 54 1.0 4.0 0.00 0.13 0.00 84 1016.6
20260507014529 30 161 1.0 6.0 0.00 0.13 0.00 83 1016.6
20260507013608 30 206 1.0 7.0 0.00 0.13 0.00 83 1016.6
20260507012707 31 169 1.0 4.0 0.00 0.13 0.00 82 1016.6
20260507011808 31 216 1.0 5.0 0.00 0.13 0.00 82 1016.6
20260507010907 31 245 2.0 5.0 0.00 0.14 0.00 81 1016.3
20260507010008 31 242 1.0 6.0 0.00 0.14 0.00 85 1016.3
20260507005428 30 198 1.0 6.0 0.00 0.15 0.00 86 1016.3
20260507004507 31 186 1.0 3.0 0.00 0.15 0.00 87 1016.3
20260507003607 31 210 1.0 3.0 0.00 0.16 0.00 86 1016.3
20260507002728 31 209 1.0 2.0 0.00 0.17 0.00 85 1016.3
20260507001807 32 209 1.0 2.0 0.00 0.18 0.00 84 1016.3
20260507000907 32 213 0.0 2.0 0.00 0.19 0.00 85 1015.8
20260507000028 32 213 0.0 2.0 0.00 0.20 0.00 85 1015.8
20260506235407 32 0 0.0 0.0 0.00 0.21 0.00 84 1015.8
20260506234507 33 0 0.0 0.0 0.00 0.23 0.00 86 1015.8
20260506233607 32 0 0.0 0.0 0.00 0.25 0.00 85 1015.8
20260506232712 32 211 0.0 2.0 0.00 0.27 0.00 83 1015.8
20260506231813 33 185 0.0 3.0 0.00 0.30 0.00 82 1015.8
20260506230912 34 181 1.0 5.0 0.00 0.48 0.16 81 1015.8
20260506230012 35 185 2.0 7.0 0.00 0.51 0.16 75 1015.8
20260506225412 35 193 1.0 5.0 0.00 0.51 0.16 80 1015.8
20260506224533 36 229 2.0 6.0 0.00 0.52 0.16 79 1016.1
20260506223612 36 238 2.0 6.0 0.00 0.53 0.16 75 1016.1
20260506222712 35 335 1.0 4.0 0.00 0.53 0.16 80 1016.1
20260506221814 37 96 2.0 7.0 0.00 0.53 0.16 76 1016.1
20260506220911 36 183 1.0 4.0 0.00 0.53 0.16 77 1016.1
20260506220012 36 83 1.0 7.0 0.00 0.54 0.16 73 1016.1
20260506215411 36 95 1.0 3.0 0.00 0.54 0.16 75 1016.1
20260506214516 35 97 1.0 6.0 0.00 0.54 0.16 76 1016.1
20260506213612 36 98 1.0 3.0 0.00 0.54 0.16 73 1016.1
20260506212712 35 98 1.0 3.0 0.00 0.54 0.16 75 1016.6
20260506211812 35 97 1.0 4.0 0.00 0.54 0.16 72 1016.6
20260506210912 34 97 1.0 3.0 0.00 0.54 0.16 72 1016.6
20260506210012 34 100 2.0 3.0 0.00 0.54 0.16 74 1016.6
20260506205412 35 105 2.0 3.0 0.00 0.54 0.16 71 1016.6
20260506204516 35 91 2.0 6.0 0.00 0.54 0.16 69 1016.6
20260506203632 34 74 1.0 6.0 0.00 0.54 0.16 72 1016.6
20260506202711 34 101 2.0 5.0 0.00 0.54 0.16 73 1016.7
20260506201811 35 89 1.0 4.0 0.00 0.54 0.16 75 1016.7
20260506200911 34 97 1.0 4.0 0.00 0.54 0.16 76 1016.7
20260506200012 32 119 1.0 4.0 0.00 0.54 0.16 76 1016.7